Retour au catalogue

STARLINK-6082

ActifCommunicationsVLEO
NORAD 56110·PAYLOAD·🇺🇸 United States

Lancé Mar 29, 2023 depuis Cape Canaveral Space Force Station

Loading…

Prochains Passages (prochaines 24 heures)

TLE

FraisSource: CelesTrak SupGP

Époque: Sep 14, 2026, 21:23 UTC

1 56110C 23046T   26257.89145833 -.00028977  00000+0 -10496-2 0  2574
2 56110  43.0025 173.2229 0000997 264.6230 154.9659 15.27590539    19

Suivez STARLINK-6082 en temps réel avec AllMySat

Download on the App Store